CES2179 ZSPD-ZSYT

Flight info

Callsign CES2179
Flight time N/A
Altitude 24600
Route ODU94D/34L ODULO B221 XDX H28 URBAD W172 FD H101 P449 ZSYT
Aircraft A320/M-SDE3FGHIRWY/LB1

Departure

Time N/A
Airport Shanghai Pudong International Airport (ZSPD)

Arrival

Time 2026-04-18 06:47
Airport Yantai Penglai International Airport (ZSYT)
Time Latitude Longitude Altitude Speed Heading
2026-04-18 06:47 37.66306 120.98490 160 ft 13 kts 222°
2026-04-18 06:47 37.66231 120.98405 163 ft 16 kts 222°
2026-04-18 06:47 37.66146 120.98308 160 ft 18 kts 222°
2026-04-18 06:47 37.66050 120.98199 160 ft 20 kts 222°
2026-04-18 06:48 37.65979 120.98116 160 ft 21 kts 222°
2026-04-18 06:48 37.65863 120.97983 160 ft 24 kts 222°
2026-04-18 06:48 37.65689 120.97784 160 ft 27 kts 222°
2026-04-18 06:48 37.65601 120.97683 160 ft 18 kts 221°
2026-04-18 06:49 37.65501 120.97572 158 ft 20 kts 223°
2026-04-18 06:49 37.65392 120.97444 159 ft 22 kts 222°
2026-04-18 06:49 37.65325 120.97367 159 ft 9 kts 220°
2026-04-18 06:49 37.65270 120.97381 159 ft 10 kts 135°
2026-04-18 06:50 37.65219 120.97452 159 ft 12 kts 132°
2026-04-18 06:50 37.65153 120.97544 159 ft 15 kts 131°
2026-04-18 06:50 37.65082 120.97644 159 ft 13 kts 132°
2026-04-18 06:50 37.65052 120.97700 159 ft 5 kts 96°
2026-04-18 06:51 37.65079 120.97743 159 ft 8 kts 39°
2026-04-18 06:51 37.65100 120.97763 159 ft 0 kts 38°
2026-04-18 06:51 37.65105 120.97768 159 ft 0 kts 38°
2026-04-18 07:14 37.65104 120.97768 165 ft 0 kts 38°
2026-04-18 07:29 37.65104 120.97767 159 ft 0 kts 38°
2026-04-18 07:55 37.65103 120.97767 162 ft 0 kts 38°
2026-04-18 08:11 37.65103 120.97766 162 ft 0 kts 38°
2026-04-18 08:35 37.65102 120.97766 162 ft 0 kts 38°
2026-04-18 08:52 37.65102 120.97765 159 ft 0 kts 38°